Weather observations for the past three days for
Scottsdale Airport
Metric (Imperial)
Date Time (mst) Wind (kph) Vis. (km) Weather Sky Cond. Temperature (ºC) Relative Humidity Wind Chill (°C) Heat Index (°C) Pressure Precipitation (cm)
Air Dwpt 6 hour altimeter (cm) sea level (mb) 1 hr 3 hr 6 hr
Max. Min.
31 05:53 Vrbl 11 16.09 Partly Cloudy SCT100 27.8 16.7 51% 28 76.07 1011.1
31 04:53 S 7 16.09 Fair CLR 27.2 17.8 28.9 25.6 57% 28 75.97 1010.0 0.05
31 03:53 Calm 16.09 Fair CLR 27.2 17.2 54% 28 75.9 1008.8
31 02:53 W 6 16.09 Fair CLR 26.7 17.8 58% 28 75.92 1009.1
31 01:53 E 20 G 30 16.09 Fair CLR 28.3 16.1 48% 29 75.87 1008.4 0.05
31 00:53 NE 17 16.09 Partly Cloudy FEW080 SCT110 26.7 19.4 64% 28 75.95 1009.7
30 23:53 N 28 G 46 16.09 Light Rain SCT110 25.6 20.6 74% 27 75.95 1009.8 0.05
30 22:53 N 20 G 37 14.48 Light Rain SCT100 BKN120 26.1 21.7 39.4 26.1 77% 28 76.02 1010.9
30 21:53 SW 37 G 54 16.09 Light Rain and Breezy FEW100 32.8 17.2 39% 33 75.87 1008.5
30 20:53 W 6 16.09 Fair CLR 37.2 16.1 29% 38 75.77 1007.0
30 19:53 W 9 16.09 Fair CLR 37.8 16.1 28% 38 75.74 1006.5
30 18:53 W 11 16.09 Fair CLR 38.3 15.6 26% 39 75.64 1005.5
30 17:53 Vrbl 6 16.09 Fair CLR 38.9 16.1 26% 40 75.64 1005.4
30 16:53 Vrbl 9 16.09 Fair CLR 39.4 16.1 39.4 35 25% 40 75.67 1005.8
30 15:53 Vrbl 7 16.09 Fair CLR 38.9 15.6 25% 39 75.74 1006.6
30 14:53 Vrbl 6 16.09 Fair CLR 38.3 16.1 27% 39 75.82 1007.6
30 13:53 Calm 16.09 Fair CLR 38.3 16.1 27% 39 75.9 1008.9
30 12:53 Calm 16.09 Fair CLR 37.2 16.7 30% 38 75.97 1009.9
30 11:53 Calm 16.09 Fair CLR 36.7 16.7 31% 37 76.05 1010.9
30 10:53 S 11 16.09 Fair CLR 35 17.2 35.6 28.9 35% 36 76.1 1011.6
30 09:53 SE 15 16.09 Fair CLR 33.9 16.7 36% 34 76.12 1011.7
30 08:53 S 13 G 33 16.09 Fair CLR 32.8 16.7 38% 33 76.12 1011.5
30 07:53 SE 20 G 28 16.09 A Few Clouds FEW100 31.7 16.7 41% 32 76.1 1011.5
30 06:53 SE 7 16.09 Mostly Cloudy BKN100 29.4 17.8 50% 30 76.07 1011.2
30 05:53 E 7 16.09 Mostly Cloudy BKN090 29.4 17.8 50% 30 76.02 1010.6
30 04:53 E 13 16.09 Fair CLR 29.4 18.3 33.3 28.3 51% 30 75.97 1009.6
30 03:53 SE 6 16.09 Fair CLR 28.9 20 59% 31 75.92 1009.1
30 02:53 NE 13 16.09 Fair CLR 32.8 16.1 37% 33 75.9 1008.7
30 01:53 NE 11 16.09 Fair CLR 32.8 16.1 37% 33 75.9 1008.5
30 00:53 NW 6 16.09 Fair CLR 32.2 16.1 38% 32 75.9 1008.8
29 23:53 E 17 G 35 16.09 Thunderstorm in Vicinity SCT110 30 18.3 49% 31 75.92 1008.9
29 22:53 SE 24 G 37 16.09 Thunderstorm in Vicinity SCT100 33.3 16.7 42.2 33.3 37% 34 75.92 1008.9
29 21:53 SE 22 G 43 6.44 Partly Cloudy with Haze SCT015 36.1 15.6 29% 36 75.87 1008.4
29 20:53 SW 9 16.09 Fair CLR 39.4 12.8 20% 39 75.77 1006.7
29 19:53 SW 9 16.09 Fair CLR 40 12.8 20% 39 75.67 1005.6
29 18:53 W 11 16.09 Fair CLR 40.6 12.8 19% 40 75.62 1005.0
29 17:53 W 22 G 31 16.09 Fair CLR 41.7 12.8 18% 41 75.64 1004.9
29 16:53 W 24 G 37 16.09 Fair CLR 42.2 12.8 42.8 38.3 17% 42 75.62 1004.6
29 15:53 W 13 G 41 16.09 Fair CLR 42.8 13.3 17% 42 75.64 1005.0
29 14:53 SW 15 16.09 A Few Clouds FEW100 41.7 15.6 22% 43 75.69 1005.9
29 13:53 SW 17 G 30 16.09 Fair CLR 42.8 15.6 20% 44 75.77 1006.8
29 12:53 Vrbl 7 G 26 16.09 Fair CLR 41.1 16.1 23% 42 75.84 1007.8
29 11:53 Vrbl 6 16.09 Fair CLR 38.9 17.2 28% 40 75.92 1008.9
29 10:53 Vrbl 6 16.09 Fair CLR 38.9 16.7 38.9 32.8 27% 40 76 1009.9
29 09:53 S 7 16.09 Fair CLR 38.3 16.1 27% 39 76.02 1010.2
29 08:53 E 6 16.09 Fair CLR 36.7 17.8 33% 38 76 1010.0
29 07:53 Calm 16.09 Fair CLR 35 17.2 35% 36 75.97 1009.6
29 06:53 Calm 16.09 Fair CLR 32.8 16.1 37% 33 75.95 1009.2
29 05:53 Calm 16.09 Fair CLR 33.3 15.6 34% 33 75.9 1008.4
29 04:53 Calm 16.09 Fair CLR 33.3 15 38.3 33.3 33% 33 75.87 1008.1
29 03:53 Calm 16.09 Fair CLR 34.4 14.4 30% 34 75.84 1007.8
29 02:53 S 7 16.09 Fair CLR 35 15 30% 35 75.87 1008.2
29 01:53 Calm 16.09 Fair CLR 36.1 15.6 29% 36 75.84 1008.0
29 00:53 S 7 16.09 Fair CLR 35.6 15.6 30% 36 75.87 1008.0
28 23:53 Calm 16.09 Fair CLR 37.2 15 27% 37 75.87 1008.2
28 22:53 NE 6 16.09 Fair CLR 37.8 14.4 42.2 37.8 25% 38 75.84 1007.7
28 21:53 Calm 16.09 Fair CLR 38.9 13.9 23% 39 75.82 1007.6
28 20:53 Calm 16.09 Fair CLR 39.4 13.9 22% 39 75.79 1007.2
28 19:53 W 6 16.09 Fair CLR 40 13.9 21% 40 75.74 1006.6
28 18:53 W 13 16.09 Fair CLR 40.6 14.4 21% 41 75.72 1006.2
28 17:53 SW 9 16.09 Fair CLR 41.7 12.8 18% 41 75.72 1006.0
28 16:53 Vrbl 7 16.09 Fair CLR 42.2 12.8 42.8 38.3 17% 42 75.72 1006.0
28 15:53 Vrbl 6 16.09 Fair CLR 42.8 13.3 17% 42 75.74 1006.5
28 14:53 SW 11 G 30 16.09 Fair CLR 42.2 13.3 18% 42 75.82 1007.5
28 13:53 SW 11 16.09 Fair CLR 41.7 14.4 20% 42 75.9 1008.5
28 12:53 Vrbl 6 16.09 Fair CLR 40 14.4 22% 40 76 1009.8
28 11:53 Vrbl 9 16.09 Fair CLR 39.4 14.4 23% 39 76.05 1010.4
28 10:53 SE 7 16.09 Fair CLR 38.3 14.4 38.3 33.9 24% 38 76.07 1011.0
28 09:53 S 9 16.09 Fair CLR 37.8 13.9 24% 37 76.1 1011.1
28 08:53 S 13 16.09 Fair CLR 37.2 13.3 24% 36 76.1 1011.1
28 07:53 S 7 16.09 Fair CLR 36.1 13.9 26% 35 76.07 1010.9
Date Time (mst) Wind (kph) Vis. (km) Weather Sky Cond. Air Dwpt Max. Min. Relative Humidity Wind Chill (°C) Heat Index (°C) altimeter (cm) sea level (mb) 1 hr 3 hr 6 hr
6 hour
Temperature (ºC) Pressure Precipitation (cm)